Vorticity
nan nan nan nan nan nan nan nan nan nan nan nan nan nan nan nan nan nan nan nan nan nan nan nan nan nan nan nan nan nan nan nan nan nan nan nan nan nan nan nan nan nan nan nan nan nan nan nan nan nan nan nan nan nan
nan 8 6 8 11 11 10 9 8 7 8 8 9 9 9 13 10 5 7 11 11 8 8 10 8 10 8 3 9 8 8 8 10 14 12 12 12 11 10 13 7 10 8 8 12 11 12 3 2 4 5 8 11 nan
nan 8 8 7 6 7 12 12 8 7 8 9 8 8 9 12 13 6 7 10 7 10 12 13 15 15 17 13 4 2 7 7 6 6 9 12 11 10 14 12 10 11 14 7 8 8 4 4 11 8 10 12 8 nan
nan 10 11 8 7 7 7 9 11 8 8 8 7 8 9 10 13 10 6 8 6 8 13 13 11 6 11 15 11 5 -0 3 7 6 10 11 14 11 10 13 13 9 9 9 8 6 11 12 12 11 9 12 13 nan
nan 7 9 13 11 10 9 8 11 11 9 7 7 8 9 10 15 11 10 10 9 7 8 7 10 16 11 10 13 14 11 8 9 12 10 10 11 15 13 12 13 10 4 4 5 9 8 8 10 10 10 9 9 nan
nan 13 13 12 13 13 9 9 11 11 11 7 8 9 10 13 10 7 15 16 11 8 7 8 14 24 20 19 21 18 14 14 12 12 11 11 11 11 11 11 10 9 9 4 2 6 6 7 10 12 12 9 10 nan
nan 12 15 18 18 15 18 20 14 7 6 8 9 10 11 12 4 3 8 21 20 7 8 11 12 13 17 18 19 19 15 13 12 10 11 11 13 8 8 9 9 12 10 8 7 10 11 13 9 12 13 12 14 nan
nan 14 12 11 12 12 12 18 15 9 7 10 11 11 14 10 7 10 12 13 9 7 9 12 10 13 16 8 12 14 12 12 12 10 11 11 11 9 9 14 14 12 11 12 14 16 14 11 12 16 16 16 12 nan
nan 9 10 11 12 10 7 6 5 7 12 14 11 9 10 10 11 15 18 7 1 9 12 10 8 9 12 13 12 11 12 10 10 10 12 12 10 7 3 3 10 13 13 11 10 12 16 13 12 15 16 14 11 nan
nan 10 10 11 13 12 8 5 9 13 16 6 6 10 12 17 13 9 8 9 12 10 10 7 6 7 9 13 11 10 11 12 11 12 10 12 11 8 12 13 13 13 16 15 13 14 16 15 12 9 8 10 12 nan
nan 9 10 11 12 12 10 10 12 11 5 3 11 10 15 15 9 8 11 11 10 10 13 15 12 10 8 8 12 13 9 12 12 14 9 11 15 16 16 15 16 17 21 23 20 19 19 17 13 10 9 10 11 nan
nan 8 8 8 11 13 14 14 10 6 6 10 8 11 11 11 12 9 11 14 10 12 13 14 18 16 11 11 11 11 10 10 10 10 12 8 15 21 17 11 10 13 17 18 18 15 11 11 12 13 13 12 11 nan
nan 10 9 8 9 13 14 13 8 8 8 5 10 10 11 14 10 13 10 8 12 13 12 13 15 13 11 10 12 11 12 6 12 11 9 8 14 21 15 12 9 11 12 11 11 11 12 10 11 13 15 16 16 nan
nan 9 10 10 10 11 14 15 8 -2 4 12 11 8 11 13 12 13 11 9 10 15 16 11 10 9 12 12 10 12 12 10 10 12 9 12 15 12 11 12 10 9 11 11 11 11 11 10 12 13 14 16 17 nan
nan 9 9 12 13 12 13 14 2 2 8 12 12 14 12 7 12 11 13 15 13 14 11 7 10 12 11 11 11 12 11 11 12 9 12 16 15 12 11 11 11 10 11 11 12 12 10 10 11 11 13 16 15 nan
nan 5 12 13 11 14 17 3 -2 7 11 13 11 12 13 12 11 13 12 11 15 11 6 12 12 12 11 11 14 9 8 11 11 12 14 14 11 11 11 11 11 12 11 11 12 12 11 10 10 10 11 12 13 nan
nan 10 22 15 14 13 1 0 13 10 7 11 11 12 9 11 14 15 13 12 11 9 10 12 12 8 8 14 11 12 10 11 13 14 13 13 12 12 11 11 12 12 11 11 12 11 12 12 11 9 9 11 12 nan
nan 21 31 23 3 2 6 10 11 13 12 10 12 13 11 11 12 13 12 13 10 11 11 9 13 16 8 13 10 7 11 13 15 15 13 13 13 13 13 13 12 11 12 11 11 11 11 12 10 9 10 11 10 nan
nan 12 15 10 5 10 12 11 8 10 14 14 14 12 11 12 13 11 12 11 10 11 14 14 12 14 9 7 12 10 13 13 14 14 12 12 13 12 12 12 13 13 12 11 9 9 9 11 11 11 11 11 10 nan
nan 16 17 7 1 5 10 10 11 12 13 11 14 12 10 11 13 15 13 12 11 13 13 9 8 11 12 9 12 12 14 18 16 12 12 13 14 13 12 11 11 10 10 9 9 11 10 8 10 11 11 12 12 nan
nan 8 17 14 9 8 11 15 10 12 13 12 12 11 12 13 12 12 14 14 10 9 11 11 11 9 12 15 16 18 20 17 13 14 16 14 12 13 12 12 12 10 10 9 10 10 10 10 9 10 11 11 11 nan
nan 13 13 12 14 14 11 9 12 14 12 13 12 11 12 12 14 13 14 10 11 11 12 10 10 11 11 14 18 21 19 15 14 14 15 15 13 12 12 12 11 11 11 12 12 10 9 8 11 12 13 11 10 nan
nan 13 10 14 14 12 11 12 15 12 11 11 13 13 12 11 13 13 11 12 9 8 13 13 11 12 12 14 14 13 17 17 13 12 11 11 12 13 12 13 15 13 11 10 11 11 9 11 12 13 13 12 12 nan
nan 12 12 11 12 13 12 14 14 12 13 13 11 11 12 12 13 14 10 9 8 10 10 12 16 17 13 11 12 11 15 16 13 12 13 13 10 11 12 12 11 12 13 12 11 11 11 12 12 13 13 12 12 nan
nan 9 13 12 13 11 12 12 14 15 13 12 13 13 11 13 12 13 12 9 8 10 11 13 13 13 15 12 10 8 11 15 13 10 11 15 12 9 10 10 10 12 14 13 11 11 11 11 12 12 12 13 12 nan
nan 10 12 13 12 11 11 12 11 12 14 13 12 13 13 14 14 12 10 10 10 9 9 12 13 15 13 12 13 11 10 15 17 12 10 14 15 15 13 11 9 7 11 15 14 11 11 11 13 13 11 9 11 nan
nan 11 12 11 13 13 13 12 12 12 12 12 10 13 15 14 15 13 10 9 10 9 10 12 13 14 13 13 12 11 13 15 17 15 13 13 13 17 19 16 12 11 12 13 14 15 15 13 12 11 11 9 11 nan
nan 9 9 14 15 14 13 11 12 14 12 10 14 13 12 15 13 10 10 9 11 12 13 12 13 13 13 13 14 15 14 13 11 10 8 8 11 13 14 14 12 12 13 15 19 17 16 14 13 12 13 12 11 nan
nan 10 13 14 14 13 13 13 12 9 10 13 14 13 14 14 11 11 10 10 14 15 15 14 12 11 13 11 12 13 12 13 14 11 10 11 10 9 10 13 12 11 12 12 14 16 16 15 15 13 12 11 11 nan
nan 12 15 13 13 14 10 10 11 11 13 14 17 16 12 10 10 10 11 13 13 13 14 15 13 13 13 13 11 9 11 14 16 16 17 17 14 12 12 13 13 12 13 12 10 10 11 13 12 11 12 12 12 nan
nan 16 14 11 12 12 10 15 17 12 11 12 13 12 12 14 14 10 11 13 14 15 14 13 12 14 14 14 13 14 11 8 11 17 20 17 13 12 12 13 14 14 14 13 12 12 11 10 11 12 12 13 13 nan
nan 14 14 14 13 10 11 12 16 14 14 13 12 14 14 12 12 11 10 14 15 13 14 15 14 12 14 15 14 12 12 14 13 14 17 16 14 14 13 13 14 15 15 14 14 15 14 13 12 13 12 11 11 nan
nan nan nan nan nan nan nan nan nan nan nan nan nan nan nan nan nan nan nan nan nan nan nan nan nan nan nan nan nan nan nan nan nan nan nan nan nan nan nan nan nan nan nan nan nan nan nan nan nan nan nan nan nan nan
CAPE
76 72 52 50 64 79 101 85 74 53 55 55 22 10 2 0 13 36 12 28 13 26 18 17 22 22 29 82 73 55 23 93 112 293 106 107 91 78 73 41 33 27 59 90 95 92 62 18 34 42 60 22 64 169
46 67 80 76 91 90 88 86 72 60 44 46 26 6 6 28 38 31 23 34 43 47 14 14 6 0 0 0 41 56 24 21 57 251 142 159 112 64 32 56 31 54 25 61 34 59 93 127 88 16 12 5 38 70
60 62 73 93 62 41 65 75 93 65 58 65 43 6 5 19 66 33 27 63 47 19 14 8 3 0 0 0 5 31 29 42 10 8 35 216 295 122 126 86 63 36 47 63 74 44 63 85 76 71 45 50 33 7
34 40 60 43 16 32 40 47 72 85 67 56 0 0 3 17 63 74 54 62 45 51 45 3 0 0 0 0 0 7 7 21 28 69 99 103 74 152 111 111 88 93 96 45 65 26 22 8 13 24 2 18 39 17
16 14 25 41 56 51 53 53 48 74 66 4 0 0 0 2 41 75 74 57 75 51 42 16 2 0 0 0 0 1 17 19 27 80 41 68 77 144 149 88 73 93 145 211 163 56 13 0 0 0 0 0 0 41
4 8 19 13 22 34 16 10 21 24 49 6 0 0 0 0 29 55 28 55 96 72 52 28 0 0 0 0 0 0 4 43 103 16 35 26 9 45 354 60 20 12 62 85 36 17 0 0 0 0 0 0 0 12
41 50 51 48 53 47 36 51 23 22 28 7 0 0 0 39 115 37 36 74 16 80 53 46 9 0 0 6 6 12 79 73 35 12 52 59 92 35 34 57 10 2 0 0 0 0 0 0 0 0 0 0 0 2
57 40 25 2 4 2 8 6 5 12 36 27 21 9 17 29 49 66 104 46 99 52 47 45 13 0 44 107 119 44 44 5 3 36 45 32 21 49 28 0 0 0 0 0 0 0 0 0 0 0 0 0 0 8
70 50 63 88 59 19 3 0 0 26 55 79 33 26 35 46 27 15 2 92 231 112 84 28 12 12 70 139 104 11 12 111 34 52 22 46 26 24 1 0 0 0 0 0 0 0 2 18 23 13 0 0 3 7
73 42 42 65 67 72 76 97 82 66 64 44 50 32 8 20 0 82 104 88 173 13 52 30 15 50 40 164 190 258 15 68 33 8 15 38 15 0 0 0 0 0 0 0 0 0 3 30 32 5 0 0 0 0
115 86 89 100 69 126 146 141 98 64 45 47 89 38 115 9 177 85 267 140 124 33 16 1 0 1 4 7 140 46 56 28 17 33 46 32 5 2 0 0 0 0 0 1 4 6 0 0 0 0 0 0 0 0
3 0 16 53 110 126 143 136 94 66 38 15 54 89 58 37 151 125 86 100 109 6 36 12 1 0 17 60 308 72 71 30 24 32 52 18 0 0 0 3 2 3 1 1 1 1 1 0 0 0 0 0 0 0
11 2 0 23 80 134 125 109 80 48 39 73 103 43 17 7 34 27 24 34 47 51 32 16 19 39 56 104 80 74 50 30 15 34 13 2 6 0 3 2 5 7 6 7 5 5 4 1 0 0 0 1 1 3
22 16 43 39 43 77 96 85 61 63 76 134 56 23 62 34 18 30 28 55 16 3 14 15 27 35 39 28 59 28 23 9 17 20 1 26 2 3 7 6 4 4 4 4 3 4 3 1 1 1 1 2 4 1
18 26 29 33 54 56 59 69 48 48 45 33 35 38 20 3 1 8 4 4 17 8 19 28 20 26 19 18 12 14 20 3 6 2 14 3 4 6 6 6 5 4 5 6 4 2 3 1 1 2 3 4 1 1
31 29 15 26 45 39 77 82 48 18 65 68 31 6 7 9 7 8 12 16 13 11 30 27 47 38 48 42 34 7 10 1 2 27 3 3 5 3 5 5 5 8 6 7 5 3 3 2 3 5 3 2 2 2
27 6 7 6 48 51 54 26 6 50 27 44 33 6 4 7 14 30 17 18 21 24 35 65 21 18 27 61 32 51 15 48 18 1 5 3 5 3 2 6 7 7 7 7 6 2 2 3 4 4 4 2 4 3
2 0 19 6 25 27 17 20 15 74 14 9 6 6 3 5 4 7 9 8 22 28 31 48 58 44 36 19 57 97 54 5 4 3 8 4 5 9 13 11 12 9 9 8 6 2 3 4 5 6 5 4 3 3
4 1 11 11 5 5 3 3 6 11 15 3 4 5 4 4 2 2 11 18 32 18 36 102 39 31 74 37 7 9 6 4 3 5 4 9 9 7 7 10 9 8 8 7 4 6 7 5 4 5 6 5 7 5
0 0 0 12 2 3 3 3 2 9 13 5 4 5 2 1 3 6 5 9 17 24 27 35 21 5 9 9 10 10 13 11 11 10 12 9 8 7 10 11 9 8 7 6 7 4 7 8 6 6 8 4 9 8
0 0 0 0 0 0 0 0 0 0 0 2 5 6 3 5 6 7 6 13 31 19 12 8 12 14 13 8 12 16 20 28 19 8 10 13 17 11 12 12 12 10 9 9 9 5 5 7 8 7 12 14 12 10
0 0 0 0 0 0 0 0 0 0 9 18 20 27 31 3 3 6 4 6 6 10 11 12 13 10 10 7 7 17 12 7 5 3 3 6 10 10 12 14 12 12 12 10 7 8 7 2 3 5 10 8 5 2
0 0 0 0 0 0 0 0 3 15 21 21 23 26 31 28 7 5 4 4 10 10 14 13 10 9 8 8 7 5 6 7 6 5 5 5 6 7 6 7 8 6 7 6 5 6 3 0 0 5 6 7 7 9
0 0 0 0 0 0 0 0 0 10 8 11 16 15 11 6 4 6 4 6 6 4 2 2 7 7 6 4 4 4 7 7 5 6 7 4 3 4 3 3 4 5 4 4 3 3 1 3 0 3 5 6 5 6
0 0 0 0 0 0 0 0 0 0 6 2 3 18 19 3 19 2 2 6 8 9 7 5 4 8 8 8 6 5 3 5 4 2 3 3 3 3 3 2 2 1 2 6 5 4 3 3 4 4 4 5 2 1
0 0 0 0 0 0 0 0 3 4 2 2 3 4 4 22 28 2 1 7 8 8 10 10 7 6 5 3 4 3 2 3 3 1 2 4 4 6 5 4 4 2 1 3 3 3 2 2 2 1 2 0 0 1
0 0 0 0 0 0 0 0 0 5 3 3 7 3 4 10 1 2 3 4 5 9 9 7 6 5 5 3 2 2 2 1 1 1 2 2 1 2 6 7 4 4 1 1 2 2 3 2 2 2 1 2 2 2
0 0 0 0 0 0 1 0 1 1 4 4 2 2 2 1 3 3 3 5 7 3 5 4 2 1 1 2 4 5 3 3 3 2 1 1 2 2 2 3 2 0 1 1 3 3 4 3 2 2 1 1 2 3
0 0 0 0 0 0 1 3 3 6 5 5 6 4 2 1 1 2 2 3 4 6 7 7 4 4 3 3 3 2 2 3 6 2 1 2 3 2 3 3 3 4 5 2 0 0 0 1 1 1 1 3 3 3
0 0 0 0 0 0 5 3 3 1 0 3 1 0 0 1 3 2 4 5 5 5 5 3 4 7 6 4 4 2 4 5 3 2 7 5 4 4 4 3 3 4 7 6 4 3 2 1 1 0 1 2 3 3
0 0 1 1 0 3 1 0 0 0 3 3 2 3 1 1 4 2 2 3 4 5 6 3 2 3 4 3 3 3 3 3 1 3 4 5 5 4 2 1 2 3 3 3 2 1 1 1 1 1 0 0 0 0
0 0 0 0 0 0 0 0 0 3 2 3 2 1 2 2 1 2 1 2 4 3 0 2 3 3 2 2 2 2 0 1 2 2 1 4 4 3 2 2 2 2 1 1 0 0 0 0 1 0 0 0 0 0
0 0 0 0 0 0 0 0 0 0 1 1 1 0 1 1 0 1 2 1 2 4 3 3 3 2 1 1 1 1 0 2 1 1 0 0 0 1 1 2 1 0 0 0 0 0 0 0 0 0 0 0 0 0